Location: Poughquag
(41.6090°N, 73.6820°W)
Time: 18:57:12
(UTC-04:00)

STRAND 1 - Pass Details

Date: 03 December 2023
Orbit: 765 x 776 km, 98.4° (Epoch: 06 October)

Event Time Altitude Azimuth Distance (km) Brightness Sun altitude
Exits shadow 19:12:20 40° 324° (NW) 1,120 ? -30.6°
Maximum altitude 19:13:24 46° 289° (WNW) 1,022 ? -30.8°
Drops below altitude 10° 19:18:13 10° 217° (SW) 2,299 ? -31.7°
Sets 19:20:35 0° 212° (SSW) 3,223 ? -32.1°
